Flag for Ukraine Weather past 2 weeks in Odesa, Ukraine

39 °F

Light rain. Mostly cloudy.

Feels Like: 32 °F
Forecast: 37 / 44 °F
Wind: 10 mph from Northeast

Location: Odesa Airport

Current Time: Nov 25, 2015 at 3:08:44 AM

Latest Report: Nov 25, 2015 at 2:30 AM

Visibility: 6 mi

Pressure: 30.09 "Hg

Humidity: 93%

Dew point: 37 °F

Location of OdesaLocation

Historic Weather in Odesa — Graph


Odesa temperature yesterday

Maximum temperature yesterday: 46 °F (at 3:00 AM)
Minimum temperature yesterday: 39 °F (at 10:30 PM)
Average temperature yesterday: 43 °F

Past Weeks' High & Low Weather Summary

High66 °F (Nov 11, 1:30 PM)100% (Nov 10, 2:00 AM)30.33 "Hg (Nov 10, 2:00 AM)
Low27 °F (Nov 17, 5:00 AM)45% (Nov 13, 1:30 PM)29.33 "Hg (Nov 21, 1:00 PM)
Average50 °F79%29.92 "Hg
* Reported Nov 10 1:00 AM — Nov 25 1:30 AM, Odesa, Weather by CustomWeather, © 2015

Note: Actual official high and low records may vary slightly from our data, if they occured in-between our weather recording intervals... More about our weather records


Odesa weather history for previous 24 hours

Time TempWeatherWind HumidityBarometerVisibility
1:30 AM
Wed, Nov 25
39 °FMostly cloudy.10 mph93%30.12 "HgN/A
1:00 AM39 °FLow clouds.10 mph93%30.12 "HgN/A
12:00 AM39 °FLow clouds.10 mph93%30.12 "HgN/A
11:30 PM
Tue, Nov 24
39 °FLow clouds.10 mph100%30.12 "HgN/A
11:00 PM39 °FLow clouds.8 mph100%30.12 "Hg5 mi
10:30 PM39 °FLow clouds.10 mph100%30.12 "Hg5 mi
10:00 PM41 °FLow clouds.10 mph93%30.12 "Hg5 mi
9:30 PM41 °FLow clouds.10 mph93%30.15 "Hg4 mi
9:00 PM41 °FLow clouds.10 mph93%30.15 "Hg5 mi
8:30 PM41 °FLight rain. Low clouds.10 mph100%30.12 "Hg4 mi
8:00 PM41 °FLight rain. Low clouds.13 mph100%30.15 "Hg4 mi
7:30 PM41 °FLight rain. Low clouds.13 mph100%30.15 "Hg4 mi
7:00 PM41 °FLight rain. Low clouds.15 mph100%30.12 "Hg4 mi
6:30 PM41 °FLight rain. Low clouds.15 mph100%30.12 "Hg4 mi
6:00 PM41 °FLight rain. Fog.17 mph100%30.12 "Hg3 mi
5:30 PM41 °FLight rain. Fog.13 mph100%30.15 "Hg2 mi
5:00 PM41 °FLight rain. Fog.15 mph100%30.12 "Hg3 mi
4:30 PM43 °FLight rain. Fog.17 mph93%30.12 "Hg2 mi
4:00 PM43 °FSprinkles. Fog.15 mph100%30.12 "Hg3 mi
3:30 PM43 °FSprinkles. Fog.15 mph100%30.12 "Hg3 mi
3:00 PM43 °FSprinkles. Fog.15 mph100%30.12 "Hg2 mi
2:30 PM43 °FSprinkles. Fog.13 mph100%30.15 "Hg3 mi
2:00 PM43 °FSprinkles. Fog.13 mph100%30.15 "Hg3 mi
1:30 PM43 °FSprinkles. Fog.13 mph100%30.15 "Hg1 mi
1:00 PM43 °FLight rain. Fog.13 mph100%30.15 "Hg2 mi
12:30 PM45 °FSprinkles. Fog.13 mph100%30.15 "Hg2 mi
12:00 PM45 °FSprinkles. Fog.6 mph100%30.18 "Hg1 mi
11:30 AM45 °FSprinkles. Fog.6 mph93%30.21 "Hg1 mi
11:00 AM45 °FSprinkles. Fog.6 mph93%30.21 "Hg3 mi
10:30 AM45 °FSprinkles. More clouds than sun.8 mph93%30.21 "Hg6 mi
10:00 AM45 °FLow clouds.10 mph93%30.24 "Hg6 mi
9:00 AM46 °FLow clouds.8 mph93%30.27 "HgN/A
8:00 AM46 °FOvercast.6 mph93%30.24 "HgN/A
7:30 AM46 °FOvercast.3 mph93%30.27 "HgN/A
7:00 AM46 °FOvercast.3 mph93%30.24 "HgN/A
6:30 AM46 °FPartly cloudy.6 mph87%30.27 "HgN/A
6:00 AM46 °FPartly cloudy.6 mph87%30.27 "HgN/A
5:00 AM46 °FPartly cloudy.3 mph87%30.27 "HgN/A
4:30 AM45 °FPartly cloudy.6 mph93%30.27 "HgN/A
4:00 AM45 °FPartly cloudy.6 mph93%30.27 "HgN/A
3:30 AM46 °FPassing clouds.3 mph87%30.27 "HgN/A
3:00 AM46 °FPassing clouds.3 mph87%30.27 "HgN/A
Weather by CustomWeather, © 2015

See weather overviewHow to use our weather pages